RH
10 9 10 10 10 10 10 10 9 10 10 9 9 9 10 10 10 11 10 10 9 7 5 4 3 3 3 3 4 4 5 5 5 5 5 5 5 5 7 9 11 12 16 19 19 24 28 27 31 35 37 39 45 53 58 62 69 77 80 81 83 84 83 82 81 84 86 87 89 90 85 82 84 85 85 81 74 73 76 73 70 62 48 43 42 41 40 39
10 9 9 10 10 10 10 10 9 10 9 9 9 9 9 9 10 10 10 11 10 9 7 6 4 3 3 3 3 4 5 5 5 5 5 5 5 5 6 7 10 12 15 18 18 22 27 28 29 33 36 40 46 51 55 61 69 77 81 82 84 86 82 77 79 81 82 84 87 87 82 79 82 83 82 81 76 74 76 72 68 64 54 45 41 40 40 38
10 10 10 10 10 10 10 10 10 9 9 9 9 9 9 9 9 9 10 10 10 10 9 8 6 4 4 3 3 4 4 4 5 5 5 5 5 5 5 5 7 10 13 16 17 21 27 27 28 31 35 41 47 50 55 63 72 77 78 81 84 83 78 74 77 81 80 82 84 83 80 79 80 79 78 78 77 75 75 69 66 67 57 45 40 39 38 38
10 10 10 10 10 10 10 10 10 10 10 9 9 9 9 9 9 9 10 10 10 10 10 10 8 6 5 4 4 4 3 5 8 9 8 6 5 5 5 5 5 8 11 14 16 21 27 28 30 33 36 43 46 47 54 63 73 79 75 77 80 79 76 72 75 82 81 82 82 80 80 81 80 77 77 77 78 78 74 70 69 67 55 42 39 37 36 37
10 10 10 10 11 11 11 10 10 10 10 10 9 8 8 9 10 11 11 12 12 11 11 11 10 8 7 5 4 3 5 11 13 11 10 8 7 6 5 5 5 6 9 12 15 20 24 28 35 37 37 42 44 44 51 59 68 76 74 72 74 75 76 71 74 82 82 81 81 81 82 81 80 78 77 78 79 79 74 74 73 65 51 40 37 36 36 39
10 10 10 11 11 11 12 11 11 10 10 10 10 9 8 9 10 12 12 12 13 12 12 12 11 10 8 7 5 3 6 12 13 12 12 10 8 6 5 6 5 6 7 9 14 19 21 27 35 40 38 39 42 42 48 55 59 67 71 69 71 74 76 71 73 80 81 82 81 81 81 79 80 80 79 78 79 79 75 75 74 64 50 40 38 37 37 40
10 10 10 11 11 12 12 12 12 12 11 10 10 9 8 8 9 11 12 12 12 12 12 11 11 11 10 9 6 6 8 9 9 11 13 11 9 7 6 5 5 6 6 8 13 17 19 26 34 38 38 37 39 40 45 51 51 60 70 70 70 74 75 71 73 76 78 82 82 81 80 78 80 80 79 78 78 80 76 73 71 63 51 42 40 38 38 41
10 10 11 11 11 12 12 12 13 12 12 11 10 10 9 8 9 10 10 11 11 12 11 10 11 11 11 10 8 11 12 9 8 11 12 12 9 7 6 5 5 8 7 7 12 16 18 24 32 36 36 35 35 36 41 49 51 55 66 72 70 72 73 71 73 75 76 82 82 81 81 80 81 80 79 79 79 79 76 74 70 64 53 44 43 41 41 41
11 12 11 12 12 12 12 12 12 12 12 12 11 11 10 9 9 11 10 10 10 11 10 9 9 9 11 10 11 15 14 11 12 12 12 12 11 9 7 6 6 8 8 8 12 14 17 24 31 34 34 33 34 33 35 45 52 54 63 71 72 71 71 71 73 74 76 80 81 81 84 83 82 82 81 81 80 77 75 74 69 64 55 46 45 46 44 41
13 13 13 12 12 12 12 12 12 12 12 12 11 11 11 11 10 11 10 9 10 10 10 9 8 9 10 11 16 18 17 16 15 14 12 11 11 10 7 6 6 8 10 10 11 11 15 23 29 30 31 32 32 32 32 36 44 53 60 65 72 72 71 73 72 72 76 79 80 83 85 84 81 83 84 81 80 77 73 72 69 65 55 46 47 48 47 42
12 12 13 13 13 12 12 12 11 11 11 11 11 10 11 11 12 12 10 10 10 9 9 8 8 8 9 13 19 18 17 20 16 13 13 9 8 7 7 6 5 8 10 11 11 10 13 21 26 26 27 28 28 29 29 30 38 51 58 63 72 71 70 73 73 73 76 78 81 83 85 84 82 84 84 80 80 78 73 71 70 67 55 47 47 46 45 42
13 13 13 13 13 13 12 12 11 11 11 11 10 9 10 11 12 12 12 11 10 9 8 7 7 8 10 14 16 14 16 21 17 14 13 9 6 5 7 7 5 7 11 12 11 9 12 20 23 24 24 25 27 26 26 29 36 48 56 61 66 67 69 72 72 72 72 76 80 79 83 85 83 84 81 79 80 80 78 74 70 67 56 48 46 43 44 44
13 14 13 13 13 13 13 12 11 11 10 11 10 9 10 11 12 12 12 10 9 9 7 7 8 8 11 14 11 10 14 18 17 15 13 10 7 6 6 7 6 6 10 14 12 10 12 18 22 22 23 22 24 25 24 28 35 44 52 56 59 64 71 72 72 69 68 75 78 75 82 86 83 83 81 79 80 80 81 76 71 68 60 54 48 42 45 45
15 15 15 14 14 14 13 12 12 11 11 11 10 9 10 11 12 11 11 10 9 10 9 9 8 9 13 12 10 12 12 14 16 15 13 11 9 8 6 7 7 7 10 14 15 15 15 17 20 21 21 21 21 22 22 26 31 37 47 52 55 64 74 74 71 69 69 75 76 75 82 84 82 83 83 80 79 81 82 78 74 69 62 60 52 44 47 44
16 17 16 15 14 14 14 13 12 10 11 11 10 9 10 11 12 12 11 10 9 10 10 10 9 11 15 13 10 12 12 13 15 14 13 11 9 8 6 8 8 8 10 13 17 19 17 15 18 18 19 19 19 21 22 26 30 34 44 50 51 62 74 75 73 70 70 74 73 75 82 83 82 83 84 82 80 82 82 80 77 70 63 61 54 46 50 48
17 17 17 16 15 14 14 14 13 11 11 11 9 8 10 11 12 12 12 10 10 10 10 13 14 14 17 14 12 13 14 14 12 13 14 11 9 8 7 9 9 8 10 14 16 19 17 14 15 16 17 18 19 21 23 26 30 33 41 47 48 56 66 71 73 69 68 71 70 74 81 82 80 82 84 82 82 83 82 81 79 72 64 63 56 47 51 53
18 17 17 16 15 15 14 14 13 12 12 11 9 8 9 11 12 13 13 10 9 10 10 13 18 19 17 14 13 15 16 15 12 13 16 13 11 10 9 10 9 8 11 15 17 17 17 14 14 15 15 17 18 19 23 25 28 31 35 41 44 49 56 63 68 65 66 71 71 71 76 78 78 80 82 82 82 83 82 83 81 74 67 66 59 49 54 54
18 17 16 15 15 15 13 13 13 13 12 10 9 9 10 11 13 17 16 14 9 8 12 12 16 23 23 19 17 17 16 16 15 16 18 17 16 15 12 11 11 10 12 16 17 16 16 15 14 14 14 15 17 18 21 22 25 28 30 34 37 42 48 54 59 62 64 70 72 72 73 76 78 80 81 81 83 83 83 83 83 77 72 70 62 54 57 52
18 17 15 15 15 14 13 13 12 12 11 10 9 9 11 13 19 23 17 15 13 16 22 17 15 24 25 21 21 20 18 18 18 18 19 19 21 20 16 15 15 15 16 17 17 15 15 16 15 15 13 13 15 15 17 20 23 26 29 33 34 38 44 46 51 57 60 65 70 70 72 75 78 80 79 81 83 84 83 83 83 81 76 73 66 60 59 53
18 16 15 14 14 14 12 12 12 12 10 9 10 11 15 18 24 26 19 15 16 21 27 18 14 20 22 25 27 24 21 19 19 20 20 21 23 21 18 18 18 19 19 17 17 15 14 17 17 16 12 9 11 13 14 19 23 24 29 34 35 37 44 47 50 52 53 62 69 68 70 75 77 78 77 79 82 83 84 84 84 83 79 76 72 66 63 54
17 16 15 14 14 13 12 12 12 11 10 10 10 13 19 19 20 23 18 14 13 15 20 16 14 17 20 26 31 30 28 24 21 21 21 22 23 20 18 18 18 20 19 16 16 16 15 17 16 14 12 9 8 10 11 16 21 21 23 31 35 35 42 52 54 53 53 60 68 67 69 74 74 75 75 78 80 81 84 85 84 85 81 79 76 72 67 59
17 16 14 13 13 13 13 12 12 11 10 11 13 15 17 17 18 19 14 13 12 12 14 13 12 15 19 24 30 34 34 28 24 22 21 22 21 19 19 18 18 19 17 16 16 16 16 15 14 13 12 10 8 8 8 11 17 21 21 29 35 34 45 58 54 54 56 59 67 68 68 71 70 71 74 77 80 80 83 84 84 86 83 81 80 76 73 65
16 15 13 12 12 13 14 14 14 12 11 12 15 17 15 15 15 15 13 11 12 13 14 13 13 14 17 22 26 27 28 26 24 24 21 21 21 19 20 19 19 18 16 16 16 16 17 14 12 13 12 11 10 7 8 9 13 20 22 28 34 33 47 62 57 54 54 56 67 69 68 70 69 71 75 79 81 81 84 85 85 85 83 82 81 77 75 70
15 14 12 12 12 13 14 16 19 18 17 17 17 16 14 13 13 13 13 10 13 16 16 14 14 13 13 18 23 22 23 23 23 25 22 20 21 21 20 19 18 19 16 16 15 15 16 15 11 11 12 12 11 9 8 9 11 19 23 24 31 35 44 56 57 56 53 55 65 68 72 76 71 71 76 81 86 86 86 85 84 85 84 83 81 77 76 73
14 13 12 11 12 13 14 18 20 22 25 24 22 19 16 15 14 13 12 13 19 22 19 17 14 11 10 14 21 20 19 19 20 26 25 19 22 22 21 20 19 20 18 15 16 15 16 18 15 12 11 12 13 12 10 10 10 16 19 20 28 39 47 51 52 57 61 62 62 63 75 83 74 71 76 81 85 86 86 84 83 85 85 84 81 79 78 75
14 13 12 12 12 14 16 18 19 22 26 27 26 23 19 16 14 13 17 24 28 24 21 19 14 12 10 11 17 17 15 15 16 24 25 19 22 25 25 25 23 22 21 18 18 17 16 19 19 16 14 12 12 13 12 11 12 13 15 21 30 39 46 49 47 52 60 62 59 57 67 80 79 73 74 79 82 83 83 85 84 84 85 84 81 81 79 77
13 13 13 12 13 15 17 17 18 20 23 25 24 22 19 16 14 17 29 36 34 28 24 21 16 14 14 13 15 15 16 16 14 22 25 21 23 25 26 30 29 26 25 24 23 21 17 18 20 19 16 14 13 13 13 12 14 13 14 26 37 38 42 47 46 48 51 53 58 56 56 71 80 75 72 75 80 84 84 85 85 84 85 85 80 79 79 77
14 13 13 14 14 16 18 17 17 18 19 20 20 19 17 16 16 21 33 40 35 29 26 25 22 19 17 16 15 15 18 19 18 23 22 20 23 24 25 29 31 30 28 27 27 23 20 19 20 20 18 17 14 12 13 13 14 12 14 29 39 38 41 44 45 48 48 50 61 62 55 67 78 72 71 74 76 81 83 82 84 82 83 86 82 78 77 77
14 14 14 15 15 17 18 17 17 16 17 17 16 16 16 17 20 23 33 39 34 28 27 26 26 24 21 18 15 16 18 20 27 31 25 22 24 23 26 30 31 32 29 27 28 25 23 21 20 20 19 18 15 13 12 12 15 12 13 29 40 40 41 42 43 46 46 50 58 58 56 67 75 70 69 75 75 76 78 78 79 78 80 84 82 79 77 77
14 14 14 14 15 17 19 17 16 15 16 17 15 15 18 20 25 31 38 38 32 31 30 27 27 27 25 20 17 17 19 23 34 39 34 32 27 22 27 32 30 30 28 26 27 26 26 24 21 19 20 18 15 15 13 11 17 18 16 26 36 37 38 40 40 42 48 52 51 49 51 60 71 70 65 68 69 69 72 74 75 76 78 79 80 79 77 77
14 15 15 15 15 16 17 17 17 16 18 20 19 20 26 28 33 42 44 37 33 32 31 28 26 25 24 20 18 18 19 26 33 36 39 38 29 23 27 33 31 29 28 26 27 26 27 29 26 19 19 19 17 17 15 14 19 22 20 22 27 31 35 37 36 39 50 54 47 44 48 56 67 68 61 59 60 63 68 70 71 74 77 77 78 79 78 77
14 15 15 16 16 16 17 17 17 18 20 23 28 34 39 41 45 49 42 33 32 30 28 27 25 26 24 16 18 21 20 27 32 34 40 41 33 28 29 32 32 29 29 28 28 27 27 31 30 23 20 20 20 21 19 18 19 20 21 22 25 33 41 40 37 41 50 51 46 43 48 62 69 64 58 57 57 60 64 67 68 70 74 74 75 77 78 78
14 15 16 16 17 17 18 18 18 19 22 27 37 46 49 52 52 47 40 35 34 29 27 29 28 29 25 17 24 26 19 26 33 31 34 36 33 32 30 28 28 29 33 33 30 30 31 31 30 31 31 24 22 24 22 19 19 20 22 23 27 39 47 45 43 46 49 47 44 40 48 68 73 64 62 61 58 60 63 67 69 68 71 73 73 75 77 77
13 15 18 18 17 18 19 20 20 22 26 32 43 50 51 54 51 43 38 36 33 29 28 30 29 28 26 26 30 26 19 27 33 31 33 30 27 27 26 26 27 30 36 39 36 36 38 37 32 33 37 31 25 25 23 22 21 19 20 22 27 38 47 48 46 46 45 44 41 38 51 71 74 68 67 62 59 60 61 65 70 70 70 71 71 73 74 74
12 14 18 20 20 18 19 22 21 24 32 39 50 54 49 49 47 40 39 35 31 33 32 29 28 27 29 33 32 27 24 28 31 33 33 29 27 27 26 26 28 32 39 43 42 40 41 40 35 32 36 36 33 29 24 25 26 21 20 24 28 35 43 46 42 40 37 37 40 46 59 69 69 71 71 64 62 61 60 64 67 68 69 69 70 71 70 72
12 13 16 21 23 20 19 21 22 29 40 44 50 51 44 43 39 34 36 35 32 35 35 32 30 29 32 33 33 33 31 29 31 34 33 31 35 37 35 32 31 35 42 44 45 45 44 42 39 37 37 38 37 32 26 28 32 28 23 24 27 30 37 42 40 39 36 36 47 59 68 70 68 73 77 73 70 65 62 64 65 66 66 66 69 70 68 69
15 13 16 21 22 20 20 20 23 35 46 47 47 44 39 37 30 25 29 31 32 35 35 34 34 33 35 35 35 37 36 34 34 32 33 37 41 43 42 38 36 40 42 42 45 47 45 42 40 40 39 37 36 33 29 30 35 36 28 25 28 31 35 39 40 41 38 40 54 63 65 68 70 73 76 76 74 70 65 64 64 66 66 66 68 70 71 69
20 18 22 24 19 19 21 21 23 33 44 49 47 41 37 37 29 22 25 27 29 36 37 36 37 37 37 36 37 37 38 38 36 35 40 45 45 46 46 43 41 42 41 40 44 44 41 40 41 41 39 38 37 33 32 33 35 40 37 30 32 36 37 38 40 44 41 41 60 73 70 70 71 70 70 72 72 70 68 66 65 66 67 69 69 69 71 70
23 26 31 26 19 19 23 26 28 31 41 50 48 39 37 41 35 25 24 26 29 36 40 40 38 39 39 39 40 41 40 40 39 42 47 48 47 47 47 46 42 39 37 38 41 40 40 44 47 43 38 39 39 34 33 34 34 41 43 36 33 34 36 36 36 40 39 39 61 81 81 80 79 74 70 68 66 66 67 66 64 64 66 68 69 68 67 68
25 31 34 28 26 23 23 30 33 30 38 46 45 38 36 40 37 28 25 29 31 34 40 43 42 43 44 43 43 42 42 42 41 41 42 44 47 47 46 46 43 38 36 37 39 40 42 47 49 44 40 40 39 36 35 35 34 39 41 37 32 30 32 33 32 35 36 39 59 79 82 82 81 78 77 73 66 63 61 60 59 59 60 63 66 66 65 66
25 32 31 27 28 24 21 32 35 30 36 42 39 35 32 32 35 31 28 31 33 33 36 40 42 45 47 46 46 45 44 43 43 43 42 42 46 45 41 42 43 39 39 41 44 44 45 47 49 48 44 40 37 35 35 35 35 38 39 36 31 28 30 34 36 35 30 35 53 69 79 83 79 76 78 78 75 68 60 58 58 55 56 60 62 61 60 61
26 32 26 19 19 19 23 35 35 30 33 34 30 28 28 28 30 31 31 32 34 35 34 35 38 42 45 46 47 47 44 42 44 48 47 44 45 44 40 39 40 41 42 44 45 43 43 44 46 49 47 41 36 34 33 33 34 36 38 36 32 30 31 34 37 36 35 42 53 60 73 82 79 76 76 75 77 75 67 63 61 59 59 61 60 57 55 54
27 28 20 14 16 20 28 35 34 29 27 24 22 24 28 29 28 29 31 34 36 37 38 39 39 41 43 43 45 47 46 44 46 48 46 43 43 44 43 37 35 38 42 42 40 38 42 44 44 46 46 40 35 32 29 31 33 34 35 36 34 32 33 33 32 35 44 55 59 64 76 83 80 79 78 75 75 74 71 67 64 62 62 60 58 56 54 52
26 26 20 17 18 22 26 29 30 29 26 22 21 23 25 27 27 26 28 32 35 37 40 42 40 40 42 42 43 47 49 48 49 48 46 45 42 42 43 38 33 35 37 39 40 39 44 49 49 48 48 45 41 36 32 32 33 32 33 34 33 32 34 36 33 34 48 57 57 65 81 85 80 78 78 77 76 74 70 66 62 62 60 56 55 55 55 54
29 33 29 23 19 20 23 22 23 26 27 27 25 23 23 25 26 24 23 26 29 33 40 42 37 37 41 42 42 46 50 50 51 50 48 47 45 42 42 40 36 36 36 36 40 42 45 52 54 53 55 56 53 48 43 39 34 31 31 32 32 31 33 37 38 42 55 63 59 60 73 81 80 79 79 79 78 76 71 64 60 60 58 54 54 53 54 55
35 37 35 30 23 22 23 20 20 23 27 30 28 24 24 25 24 22 21 23 25 29 35 37 34 35 38 39 41 47 50 50 51 52 51 51 49 44 42 41 38 38 37 36 39 42 45 50 53 54 55 55 53 50 46 41 36 32 30 30 30 31 31 35 41 47 55 64 66 61 62 71 76 79 83 84 80 76 71 65 62 60 57 55 55 53 52 51
33 31 31 31 29 28 26 22 22 23 22 26 26 22 24 26 26 27 25 21 20 24 31 33 32 37 41 41 44 47 48 50 51 51 51 51 50 46 42 41 39 37 37 37 39 43 46 50 52 52 52 50 49 48 43 38 36 34 32 31 31 32 33 33 38 45 50 62 73 69 62 66 72 73 79 85 84 78 70 66 64 60 58 60 60 57 52 47
28 26 26 28 31 31 26 22 22 20 17 21 23 22 25 27 26 29 29 24 19 22 32 35 33 38 45 46 49 51 49 50 51 50 50 50 48 46 44 42 41 38 36 36 39 42 46 51 52 50 49 49 48 48 44 39 37 33 30 30 31 32 34 32 34 41 48 57 66 69 67 69 71 71 72 75 78 76 70 66 63 60 60 63 64 62 56 48
25 26 23 24 27 25 21 19 20 21 22 23 23 22 25 27 26 25 27 28 24 21 29 34 31 34 41 43 48 53 52 52 54 51 49 47 46 45 46 46 45 41 37 36 38 41 44 50 52 48 47 47 47 48 45 39 37 33 28 29 32 34 34 31 34 42 50 54 58 64 70 72 72 74 73 70 70 70 68 64 62 61 59 61 64 64 59 52
27 29 24 25 26 19 16 19 24 32 37 31 25 23 25 27 25 21 20 25 27 25 30 34 29 29 34 36 37 42 44 47 53 53 49 46 45 45 47 48 46 43 40 36 35 38 41 46 48 46 46 44 44 47 45 40 37 34 30 31 34 35 34 31 36 46 54 59 61 63 69 72 75 77 74 70 68 67 65 64 62 62 58 57 62 64 62 58
27 29 28 32 31 20 15 20 26 37 43 36 28 25 24 22 19 19 18 18 21 24 27 29 27 26 29 30 29 29 30 32 38 42 41 41 42 43 45 46 45 45 46 40 34 35 37 39 42 44 45 43 40 41 42 41 40 37 34 34 33 34 34 32 36 45 53 58 63 66 69 72 74 75 73 71 68 64 65 65 63 63 59 56 62 66 64 63
21 25 29 33 33 24 21 28 32 34 36 33 27 23 21 19 18 22 24 19 16 19 20 21 24 25 27 29 29 26 24 24 24 26 27 29 31 33 36 38 37 40 46 45 39 35 34 35 39 41 41 39 36 35 37 40 43 42 39 38 35 35 35 33 36 43 47 51 57 63 68 67 68 71 73 72 69 66 66 65 63 63 59 55 60 65 64 63